Tracking 30918 objects as of 2-Jul-2025
HD Live streaming from Space Station
objects crossing your sky now

COSMOS 1275 DEB

Track COSMOS 1275 DEB now!
10-day predictions


NORAD ID: 12671
Int'l Code: 1981-053AB
Perigee: 853.3 km
Apogee: 877.0 km
Inclination: 82.9 °
Period: 102.1 minutes
Semi major axis: 7236 km
RCS: 0.0812 m2 (small)
Launch date: June 4, 1981
Source: Commonwealth of Independent States (former USSR) (CIS)
Launch site: PLESETSK MISSILE AND SPACE COMPLEX (PKMTR)

Note: This is SATELLITE DEBRIS
Your satellite tracking list
COSMOS 2251 DEB
Track 1 satellite(s)




NASA's NSSDC Master Catalog

Two Line Element Set (TLE):
1 12671U 81053AB  25182.51118692  .00001802  00000-0  10044-2 0  9997
2 12671  82.9065 106.6300 0016433 219.7911 140.2061 14.10400016230390
Source of the keplerian elements: AFSPC